Location: Asis
(14.1331°N, 120.9056°E)
Time: 08:37:30
(UTC+00:00)

SJ 16-02 - Pass Details

Date: 15 January 2026
Orbit: 583 x 594 km, 75.0° (Epoch: 8 February)

Event Time Altitude Azimuth Distance (km) Brightness Sun altitude
Rises 10:04:28 0° 339° (NNW) 2,812 4.7 -4.7°
Reaches altitude 10° 10:06:44 10° 334° (NNW) 1,913 4.0 -5.3°
Maximum altitude 10:10:51 49° 259° (W) 759 2.4 -6.2°
Drops below altitude 10° 10:14:59 10° 184° (S) 1,916 4.2 -7.1°
Sets 10:17:15 0° 179° (S) 2,818 5.0 -7.6°
